Location: Gaast
(52.9002°N, 5.8891°E)
Time: 22:38:45
(UTC+00:00)

IGS 5A - Pass Details

Date: 18 November 2025
Orbit: 549 x 559 km, 97.4° (Epoch: 02 December)

Event Time Altitude Azimuth Distance (km) Brightness Sun altitude
Rises 16:44:21 0° 173° (S) 2,713 7.0 -9.9°
Reaches altitude 10° 16:46:29 10° 177° (S) 1,823 6.2 -10.2°
Maximum altitude 16:50:24 63° 259° (WSW) 620 3.9 -10.8°
Drops below altitude 10° 16:54:20 10° 341° (NNW) 1,837 6.0 -11.4°
Sets 16:56:30 0° 344° (NNW) 2,736 6.9 -11.7°
